Tracking 19193 objects as of 24-Jun-2018
HD Live streaming from Space Station
objects crossing your sky now

FENGYUN 1C DEB

Track FENGYUN 1C DEB now!
10-day predictions


NORAD ID: 38160
Int'l Code: 1999-025ERH
Perigee: 819.6 km
Apogee: 863.8 km
Inclination: 99.0 °
Period: 101.6 minutes
Semi major axis: 7212 km
RCS: 0.0125 m2 (small)
Launch date: May 10, 1999
Source: People's Republic of China (PRC)
Launch site: Taiyaun Space Center, China (TSC)

Note: This is SATELLITE DEBRIS
aabbcc
Your satellite tracking list
Your tracking list is empty




NASA's NSSDC Master Catalog

Two Line Element Set (TLE):
1 38160U 99025ERH 18172.93713279  .00000818  00000-0  42600-3 0  9995
2 38160  99.0477 232.6630 0030680 359.4541   0.6594 14.17277204471085
Source of the keplerian elements: AFSPC